INTELSAT 805 (IS-805)

Last updated on May 23, 2019, 3:05 a.m. UTC

1 25371U 98037A   19141.85123409 -.00000039  00000-0  00000-0 0  9996
2 25371   1.5517  90.7324 0003584 327.4995 296.5006  1.00272248 76640
UTC
Height (km)
Latitude
Longitude
Inclination
Orbital Period
UTC large
Height (km)
Speed (km/s)
/
Latitude / Longitude
Inclination (degrees)
Orbital Period (minutes)
Azimuth
Elevation
Range (km)
Doppler Factor
iOS Compass Heading
iOS Angle

Next 30 passes for location: Hong Kong

Rise time Rise Azimuth (degrees) Set time Set Azimuth (degrees) Duration Max altitude (degrees)

No matching passes for this satellites